Tracking 29932 objects as of 4-Dec-2024
HD Live streaming from Space Station
objects crossing your sky now

STARLINK-31938

Track STARLINK-31938 now!
10-day predictions
STARLINK-31938 is classified as:


NORAD ID: 59865
Int'l Code: 2024-098H
Perigee: 450.3 km
Apogee: 452.1 km
Inclination: 43.0 °
Period: 93.5 minutes
Semi major axis: 6822 km
RCS: Unknown
Launch date: May 24, 2024
Source: United States (US)
Launch site: AIR FORCE EASTERN TEST RANGE (AFETR)
Your satellite tracking list
Your tracking list is empty




NASA's NSSDC Master Catalog

Two Line Element Set (TLE):
1 59865U 24098H   24338.40747157  .00001017  00000-0  31598-4 0  9990
2 59865  42.9935  19.1142 0001282 266.6991  93.3719 15.40701168 31118
Source of the keplerian elements: AFSPC